Regional Weather Roundup
Issued by NWS Wakefield, VA

Home | Current Version | Previous Version | Text Only | Print | Product List | Glossary Off
Versions: 1 2 3 4 5 6 7 8 9 10 11 12 13 14 15 16 17 18 19 20 21 22 23 24 25 26 27

000
ASUS41 KAKQ 191115
RWRAKQ

REGIONAL WEATHER ROUNDUP
NATIONAL WEATHER SERVICE WAKEFIELD VA
700 AM EDT THU APR 19 2018

Note: "fair" indicates few or no clouds below 12,000 feet with no
significant weather and/or obstructions to visibility. * = Denotes
station may not report precipitation (e.g., rain,snow,etc.),
thunder or fog.

VAZ042-051-052>054-056-191200-
NORTHERN VIRGINIA

CITY           SKY/WX    TMP DP  RH WIND       PRES   REMARKS
WASH NATIONAL  MOCLDY    52  39  61 N10       29.67R
DULLES         LGT RAIN  48  42  80 W3        29.68R
FORT BELVOIR   CLOUDY    51  40  65 W7        29.68R
QUANTICO       DRIZZLE   52  43  71 W7        29.71R
FREDERICKSBRG* DRIZZLE   49  45  87 W6        29.71R
STAFFORD*      DRIZZLE   49  44  82 CALM      29.74R
WARRENTON      DRIZZLE   49  41  73 CALM      29.69R
CULPEPER*      RAIN      48  44  83 CALM      29.72R
MANASSAS*      LGT RAIN  50  41  71 CALM      29.70R
LEESBURG*      CLOUDY    50  45  81 CALM      29.70R
WINCHESTER     CLOUDY    45  41  87 W8        29.72R
FRONT ROYAL*   CLOUDY    46  41  81 CALM      29.70R
LURAY*         LGT RAIN  48  45  87 E5        29.71R
$$

VAZ048-049-060>072-079>083-191200-
CENTRAL AND SOUTH CENTRAL VIRGINIA

CITY           SKY/WX    TMP DP  RH WIND       PRES   REMARKS
RICHMOND       MOCLDY    50  47  89 N10       29.69R
CHESTERFIELD*  CLOUDY    51  44  77 N6        29.71R
PETERSBURG*    MOCLDY    52  43  71 N8        29.71R
HANOVER        MOCLDY    48  45  89 CALM      29.72R
TAPPAHANNOCK*  MOCLDY    48  46  93 CALM      29.69R
QUINTON*       PTSUNNY   48  46  92 NW8       29.68R
CHARLOTTSVILLE LGT RAIN  51  45  79 CALM      29.71R
GORDONSVILLE*  CLOUDY    48  48  98 CALM      29.70R
ORANGE*        LGT RAIN  46  43  87 CALM      29.71R
LOUISA*        LGT RAIN  47  44  88 NE6       29.75R
BUMPASS*       CLOUDY    49  43  80 N3        29.73R
FARMVILLE*     CLOUDY    52  52 100 N6        29.71R
CREWE*         CLOUDY    54  45  73 N3        29.71R
FORT PICKETT*  CLOUDY    56  45  67 N5        29.70R
CHASE CITY*    CLOUDY    63  48  57 CALM      29.68R
CLARKSVILLE*   PTSUNNY   64  46  52 SW5       29.67R
SOUTH HILL*    FAIR      62  48  60 SW7       29.73R
LAWRENCEVILLE* FAIR      64  45  50 SW3       29.67R
EMPORIA*       FAIR      61  46  59 CALM      29.68R
$$

VAZ088>098-191200-
SOUTHEAST VIRGINIA

CITY           SKY/WX    TMP DP  RH WIND       PRES   REMARKS
NORFOLK        FAIR      68  49  50 SW14G20   29.63R
VIRGINIA BEACH FAIR      65  50  58 SW10      29.63R
NORFOLK NAVAL  FAIR      63  49  60 NW15G28   29.68R
WEST POINT*    FAIR      48  45  90 CALM      29.70R
SALUDA*        CLOUDY    49  48  97 NW6       29.69R
NEWPORT NEWS   FAIR      59  46  62 N6        29.68R
LANGLEY AFB    FAIR      60  48  63 NW12G21   29.69R
FORT EUSTIS    FAIR      57  47  70 NW10      29.66R
WILLIAMSBURG*  FAIR      54  45  71 N5        29.70R
HR EXEC AP*    FAIR      65  49  56 SW7       29.66R
FRANKLIN*      FAIR      65  48  55 SW7       29.66R
US460-WAKEFLD  FAIR      58  47  66 VRB7      29.69R
$$

VAZ020-022-025-037-045-191200-
WEST CENTRAL AND SOUTHWEST VIRGINIA

CITY           SKY/WX    TMP DP  RH WIND       PRES   REMARKS
STAUNTON*      RAIN      48  46  91 CALM      29.73S
WAYNESBORO*    CLOUDY    49  47  93 W6        29.72R
HOT SPRINGS VA CLOUDY    44  41  89 W18G32    29.75R
LYNCHBURG      CLOUDY    60  48  64 CALM      29.72R
DANVILLE       MOCLDY    64  47  53 W10       29.70R
SOUTH BOSTON*  CLOUDY    63  44  49 SW3       29.68R
MARTINSVILLE   CLOUDY    65  49  55 N17       29.77R
ROANOKE        CLOUDY    56  47  71 W7        29.78R
BLACKSBURG     CLOUDY    51  47  85 W7        29.82R
DUBLIN*        CLOUDY    52  48  86 CALM      29.81R
MARION*        MOCLDY    53  47  80 NW15G28   29.82S
HILLSVILLE*    CLOUDY    54  47  76 NW14G20   29.78R
RICHLANDS*     CLOUDY    44  35  71 NW9       29.87R HAZE
WISE*          CLOUDY    43  43 100 W8        29.92R
ABINGDON*      MOCLDY    50  43  77 NW13G22   29.87R
$$

MDZ021>025-VAZ099-100-191200-
SOUTHERN MARYLAND AND THE DELMARVA PENINSULA

CITY           SKY/WX    TMP DP  RH WIND       PRES   REMARKS
PATUXENT RIVER FAIR      52  43  71 N12       29.66R
BAY BRIDGE APT FAIR      50  41  71 E8        29.63F
LEONARDTOWN    MOCLDY    48  41  76 N6        29.68R
DOVER          CLOUDY    49  40  71 N16       29.67S
GEORGETOWN     CLOUDY    50  43  77 N12       29.66S
EASTON         PTCLDY    50  41  71 NE6       29.69F
CAMBRIDGE      CLOUDY    50  45  81 N7G14     29.65S
SALISBURY      CLOUDY    48  45  89 N9G18     29.66R
TANGIER        NOT AVBL
OCEAN CITY     CLOUDY    48  47  96 N9        29.65R
WALLOPS ISLAND CLOUDY    52  48  86 NW9       29.66R
ACCOMACK*      CLOUDY    52  49  88 NW12G17   29.68R
$$

NCZ012>017-030>032-191200-
NORTH CENTRAL AND EASTERN NORTH CAROLINA

CITY           SKY/WX    TMP DP  RH WIND       PRES   REMARKS
ROANOKE RAPIDS FAIR      63  50  63 SW9       29.68R
RALEIGH        FAIR      64  51  62 SW12      29.71R
ELIZABETH CITY FAIR      66  55  67 SW13      29.68R
AHOSKIE*       FAIR      63  51  64 CALM      29.69R
EDENTON*       FAIR      67  55  66 SW9       29.71R
CURRITUCK*     NOT AVBL
KILL DEVIL HLS FAIR      65  53  65 SW7       29.69R
MANTEO         FAIR      65  54  67 SW14      29.72R
CAPE HATTERAS  FAIR      66  58  75 SW18G29   29.76R
TARBORO*       NOT AVBL
GOLDSBORO      FAIR      66  52  59 SW13      29.72R
WASHINGTON     FAIR      66  51  58 SW9       29.73R
GREENVILLE     FAIR      66  52  59 SW12      29.75R
NEW BERN       FAIR      67  51  56 SW13G22   29.77R
WILMINGTON     FAIR      64  53  67 SW13      29.81R
$$

VAZ048-191200-
ELSEWHERE

CITY           SKY/WX    TMP DP  RH WIND       PRES   REMARKS
HARRISBURG PA  MOCLDY    43  40  89 NW8       29.67R FOG
BALTIMORE      MOCLDY    50  39  66 CALM      29.65S
ANNAPOLIS      FAIR      53  43  68 NE3       29.63F
ANDREWS AFB    FAIR      50  38  64 E6        29.62F
PHILADELPHIA   CLOUDY    47  36  65 E16       29.63F
HENDERSON NC   FAIR      58  45  62 SW7       29.69R
GREENSBORO     MOCLDY    62  48  60 W10       29.73R
ROCKY MOUNT    FAIR      66  51  58 SW10      29.71R
$$

VAZ100-191200-
MARINE

STATION/POSITION TIME  TEMP    WIND        PRES    WAVE   SWELL
                       AIR SEA DIR/SP/G            HT/PER HT/PER
                 (UTC) (F)     (DEG/KT/KT) (MB)    (FT/S) (FT/S)
BRANDYWINE LGT   1042   49     360/ 22/ 25 1005.1R
CAPE MAY NJ      1048   49 49  330/  2/ 10 1004.2R
LEWES DE         1048          350/ 22/ 28   N/A
15NM E FENWICK I 1050   47 46  290/  8/ 10 1003.7R   3/ 4   3/ 4
OCEAN-CITY-INLET 1048   49 49  340/  9/ 11 1004.2R
WACHAPREAGUE VA  1048   52 56  310/  3/ 13 1004.4R
THOMAS POINT MD  1100   50 50   80/  9/ 10 1004.2F
GOOSES REEF MD   1100   51      40/ 10/ 14 1005.4
COVE POINT MD    1048   50      20/ 12/ 15 1005.0R
SOLOMONS ISLAND  1048   51 52  340/  9/ 12 1004.3R
BISHOPS HEAD MD  1048   50 54  350/  6/ 10 1004.6R
PINEY POINT MD   1048           10/  6/  6   N/A
POTOMAC MD       1100   51 52  340/  6/  8 1006.2    1/ 3
CAMBRIDGE MD     1048   50 53              1004.8F
LEWISETTA VA     1048   50 55  360/  7/ 11 1005.1R
RAPPAHANNOCK LGT 1048          320/ 14/ 16 1005.8R
YORK RVR RNG VA  1048   54     340/ 16/ 17 1005.7R
YORKTOWN VA      1048   53 56  310/ 16/ 19 1004.7R
DOMINION TERM VA 1048   63     310/ 12/ 16 1004.6R
KIPTOPEKE VA     1048          330/ 18/ 26   N/A
CAPE HENRY VA    1048   67     220/ 10/ 17   N/A
WILLOUBY STN VA  1048   64     340/ 12/ 17 1004.7R
S CRANEY ISL VA  1048   67     230/  8/ 15 1003.2R
CAPE HENRY BUOY  1100      52                N/A     3/ 5   2/15
64NM E OF VA BCH 1050   56 50  210/ 17/ 21 1004.6R   6/ 6   2/15
DUCK PIER NC     1048   67 48  220/ 15/ 19 1004.8R
44100 DUCK FRF   1045      49                N/A     3/ 4   2/15
44056 DUCK FRF   1100      48                N/A     2/15   2/15
OREGON INLET NC  1042   63 62  210/ 18/ 23 1006.2R
HATTERAS NC      1048          230/ 16/ 22   N/A
DIAMOND SHLS NC  1100   70 69  230/ 25/ 31 1008.6
CAPE LOOKOUT NC  1100          220/ 14/ 20 1009.3R
$$




USA.gov is the U.S. government's official web portal to all federal, state and local government web resources and services.